FREGAT DEB, 47332

Orbit data source: Space-Track

FREGAT DEB, 47332 is space debris in LEO originally from a launch on Mon, 18 Jul 2011 UTC launched from the Tyuratam Missile And Space Complex (TTMTR). Debris objects in space refer to the collection of defunct objects orbiting the Earth. Examples of debris include non-operational satellites, rocket bodies, and fragments generated from explosions, collisions, or faulty payload assembly.

Loading next visibility...
Identifier
47332, 2011-037NP
Orbit
LEO
Country
Flag of CISCIS
Related business
Manufacturer
Lavochkin
Mission
Spacecraft
Bus & Motor
Unknown
Mass
Unknown
Launch date (UTC)
2011-07-18 (14 years ago)
Launch vehicle
Unknown
Launch site
Tyuratam Missile And Space Complex (TTMTR)
Object type
Payload
Rocket body
Debris
Shape & HBR
Unknown shape, 0.1 m
Radar Cross Section
Small (<0.1 m²)

Expand to show TLE details & history
Last TLE update: 1 day ago

TLE from 1 day ago
0 FREGAT DEB
1 47332U 11037NP  25340.20071377  .00003848  00000-0  86668-3 0  9992
2 47332  51.4269 319.9255 1886862 304.7348  38.9665 11.29247510202159
Epoch: 2025-12-06T04:49Z
TLE epoch observation values (Epoch: 2025-12-06T04:49:01.669Z)
Latitude
-0.00004°
Longitude
172.43666°
Altitude
931.951 km
Speed
7.848 km/s
True Right ascension
21h 19m 42s
True Declination
0° 00' 00"
Sunlit
Object was in daylight at epoch
Visualization orbit readout
Latitude
Unknown
Longitude
Unknown
Altitude
Unknown
Speed
Unknown
Apparent Right ascension
Unknown
Apparent Declination
Unknown
Sunlit
N/A
Visualization observer readout
Local Sidereal Time
12:45:15
Azimuth
Unknown
Elevation
Unknown
Doppler factor
Unknown
Orbital elements
Apogee altitude
3,598.107 km
Perigee altitude
430.947 km
Semi-major axis
8,392.664 km
Eccentricity
0.18869
Inclination
51.4269°
RAAN
319.9255°
Arg. of periapsis
304.7348°
True anomaly
55.3523°
Mean anomaly
38.9665°
Eccentric anomaly
46.85434°
Mean motion
2.82289 °/min
Orbital period
127.53 mins
BSTAR
0.00086668
Loading maneuver chart data...
Computing Atmospheric mass density...
Loading historical data...
Loading historical data...
Loading historical data...
Loading historical data...
Loading historical data...
Loading historical data...
Loading historical data...

Documentation

Showing up to 5 results
|